Home   Weather   Würselen   Past weeks

Flag for Germany Past Weather in Würselen, North Rhine-Westphalia, Germany — Yesterday and Last 2 Weeks

Now
55 °F

Clear.


Feels Like: 55 °F
Forecast: 43 / 70 °F
Wind: 1 mph from South

Location: Geilenkirchen Airport

Current Time: Sep 26, 2016 at 10:50:58 PM

Latest Report: Sep 26, 2016 at 9:50 PM


Visibility: 10 mi

Pressure: 30.27 "Hg

Humidity: 82%

Dew Point: 50 °F

Location of WürselenLocation

Past Weather in Würselen — Graph

°F

Würselen Temperature Yesterday

Maximum temperature yesterday: 68 °F (at 6:50 PM)
Minimum temperature yesterday: 61 °F (at 9:50 PM)
Average temperature yesterday: 63 °F

High & Low Weather Summary for the Past Weeks

 TemperatureHumidityPressure
High93 °F (Sep 13, 4:50 PM)94% (Sep 15, 9:50 PM)30.30 "Hg (Sep 15, 9:50 PM)
Low43 °F (Sep 22, 5:50 AM)30% (Sep 13, 4:50 PM)29.80 "Hg (Sep 15, 3:50 PM)
Average65 °F70%30.06 "Hg
* Reported Sep 11 8:50 PM — Sep 26 8:50 PM, Würselen, Weather by CustomWeather, © 2016

Note: Actual official high and low records may vary slightly from our data, if they occured in-between our weather recording intervals... More about our weather records

Advertising

Würselen Weather History for the Previous 24 Hours

Scroll right to see more
 ConditionsComfort  
Time TempWeatherWind HumidityBarometerVisibility
8:50 PM
Mon, Sep 26
59 °FClear.1 mph72%30.24 "Hg10 mi
7:50 PM59 °FClear.3 mph72%30.24 "Hg10 mi
6:50 PM61 °FSunny.3 mph68%30.24 "Hg10 mi
5:50 PM64 °FBroken clouds.6 mph56%30.24 "HgN/A
4:50 PM64 °FPartly sunny.7 mph52%30.24 "HgN/A
3:50 PM66 °FPartly sunny.5 mph49%30.24 "HgN/A
2:50 PM66 °FPartly sunny.6 mph49%30.24 "HgN/A
1:50 PM66 °FPartly sunny.2 mph52%30.24 "HgN/A
12:50 PM63 °FScattered clouds.5 mph64%30.24 "HgN/A
11:50 AM63 °FScattered clouds.5 mph68%30.24 "HgN/A
10:50 AM59 °FSunny.6 mph72%30.24 "Hg10 mi
9:50 AM57 °FSunny.7 mph77%30.24 "Hg10 mi
8:50 AM54 °FSunny.2 mph82%30.24 "Hg10 mi
7:50 AM50 °FSunny.5 mph94%30.24 "Hg10 mi
6:50 AM52 °FClear.5 mph88%30.24 "Hg10 mi
5:50 AM52 °FClear.7 mph88%30.24 "Hg10 mi
4:50 AM54 °FClear.8 mph82%30.24 "Hg10 mi
3:50 AM55 °FClear.6 mph82%30.24 "Hg10 mi
2:50 AM55 °FClear.7 mph82%30.21 "Hg10 mi
1:50 AM59 °FPassing clouds.7 mph72%30.21 "HgN/A
12:50 AM61 °FClear.7 mph72%30.21 "Hg10 mi
11:50 PM
Sun, Sep 25
61 °FPassing clouds.3 mph72%30.18 "HgN/A
10:50 PM61 °FPassing clouds.6 mph72%30.18 "HgN/A
Weather by CustomWeather, © 2016

See weather overviewHow to use our weather pages